owner,sensor,date,latitude,longitude,air_pressure(mBar),qcFlag 
NDBC,ioos:station:NOAA.NDBC:PTAT2:1,2019-09-01T00:00:00Z,27.8260,-97.0510,1014.0,11111222 
NDBC,ioos:station:NOAA.NDBC:PTAT2:1,2019-09-01T01:00:00Z,27.8260,-97.0510,1013.9,11111222 
NDBC,ioos:station:NOAA.NDBC:PTAT2:1,2019-09-01T02:00:00Z,27.8260,-97.0510,1014.2,11111222 
NDBC,ioos:station:NOAA.NDBC:PTAT2:1,2019-09-01T04:00:00Z,27.8260,-97.0510,1014.9,11111222 
NDBC,ioos:station:NOAA.NDBC:PTAT2:1,2019-09-01T06:00:00Z,27.8260,-97.0510,1014.8,11111222 
NDBC,ioos:station:NOAA.NDBC:PTAT2:1,2019-09-01T07:00:00Z,27.8260,-97.0510,1015.1,11111222 
NDBC,ioos:station:NOAA.NDBC:PTAT2:1,2019-09-01T08:00:00Z,27.8260,-97.0510,1015.0,11111222 
NDBC,ioos:station:NOAA.NDBC:PTAT2:1,2019-09-01T09:00:00Z,27.8260,-97.0510,1014.7,11111222 
NDBC,ioos:station:NOAA.NDBC:PTAT2:1,2019-09-01T10:00:00Z,27.8260,-97.0510,1014.5,11111222 
NDBC,ioos:station:NOAA.NDBC:PTAT2:1,2019-09-01T11:00:00Z,27.8260,-97.0510,1014.6,11111222 
NDBC,ioos:station:NOAA.NDBC:PTAT2:1,2019-09-01T12:00:00Z,27.8260,-97.0510,1015.2,11111222 
NDBC,ioos:station:NOAA.NDBC:PTAT2:1,2019-09-01T14:00:00Z,27.8260,-97.0510,1016.4,11111222 
NDBC,ioos:station:NOAA.NDBC:PTAT2:1,2019-09-01T15:00:00Z,27.8260,-97.0510,1016.6,11111222 
NDBC,ioos:station:NOAA.NDBC:PTAT2:1,2019-09-01T16:00:00Z,27.8260,-97.0510,1017.0,11111222 
NDBC,ioos:station:NOAA.NDBC:PTAT2:1,2019-09-01T17:00:00Z,27.8260,-97.0510,1016.8,11111222 
NDBC,ioos:station:NOAA.NDBC:PTAT2:1,2019-09-01T18:00:00Z,27.8260,-97.0510,1016.2,11111222 
NDBC,ioos:station:NOAA.NDBC:PTAT2:1,2019-09-01T19:00:00Z,27.8260,-97.0510,1015.9,11111222 
NDBC,ioos:station:NOAA.NDBC:PTAT2:1,2019-09-01T20:00:00Z,27.8260,-97.0510,1015.0,11111222 
NDBC,ioos:station:NOAA.NDBC:PTAT2:1,2019-09-01T21:00:00Z,27.8260,-97.0510,1014.0,11111222 
NDBC,ioos:station:NOAA.NDBC:PTAT2:1,2019-09-01T22:00:00Z,27.8260,-97.0510,1013.3,11111222 
NDBC,ioos:station:NOAA.NDBC:PTAT2:1,2019-09-01T23:00:00Z,27.8260,-97.0510,1013.3,11111222 
NDBC,ioos:station:NOAA.NDBC:PTAT2:1,2019-09-02T00:00:00Z,27.8260,-97.0510,1013.5,11111222 
NDBC,ioos:station:NOAA.NDBC:PTAT2:1,2019-09-02T01:00:00Z,27.8260,-97.0510,1013.7,11111222 
NDBC,ioos:station:NOAA.NDBC:PTAT2:1,2019-09-02T02:00:00Z,27.8260,-97.0510,1014.2,11111222 
NDBC,ioos:station:NOAA.NDBC:PTAT2:1,2019-09-02T03:00:00Z,27.8260,-97.0510,1014.5,11111222 
NDBC,ioos:station:NOAA.NDBC:PTAT2:1,2019-09-02T04:00:00Z,27.8260,-97.0510,1014.9,11111222 
NDBC,ioos:station:NOAA.NDBC:PTAT2:1,2019-09-02T06:00:00Z,27.8260,-97.0510,1014.9,11111222 
NDBC,ioos:station:NOAA.NDBC:PTAT2:1,2019-09-02T07:00:00Z,27.8260,-97.0510,1014.4,11111222 
NDBC,ioos:station:NOAA.NDBC:PTAT2:1,2019-09-02T08:00:00Z,27.8260,-97.0510,1014.0,11111222 
NDBC,ioos:station:NOAA.NDBC:PTAT2:1,2019-09-02T09:00:00Z,27.8260,-97.0510,1013.8,11111222 
NDBC,ioos:station:NOAA.NDBC:PTAT2:1,2019-09-02T10:00:00Z,27.8260,-97.0510,1013.9,11111222 
NDBC,ioos:station:NOAA.NDBC:PTAT2:1,2019-09-02T11:00:00Z,27.8260,-97.0510,1013.9,11111222 
NDBC,ioos:station:NOAA.NDBC:PTAT2:1,2019-09-02T12:00:00Z,27.8260,-97.0510,1014.1,11111222 
NDBC,ioos:station:NOAA.NDBC:PTAT2:1,2019-09-02T13:00:00Z,27.8260,-97.0510,1014.7,11111222 
NDBC,ioos:station:NOAA.NDBC:PTAT2:1,2019-09-02T16:00:00Z,27.8260,-97.0510,1015.6,11111222 
NDBC,ioos:station:NOAA.NDBC:PTAT2:1,2019-09-02T17:00:00Z,27.8260,-97.0510,1015.6,11111222 
NDBC,ioos:station:NOAA.NDBC:PTAT2:1,2019-09-02T18:00:00Z,27.8260,-97.0510,1015.0,11111222 
NDBC,ioos:station:NOAA.NDBC:PTAT2:1,2019-09-02T19:00:00Z,27.8260,-97.0510,1014.9,11111222 
NDBC,ioos:station:NOAA.NDBC:PTAT2:1,2019-09-02T20:00:00Z,27.8260,-97.0510,1013.5,11111222 
NDBC,ioos:station:NOAA.NDBC:PTAT2:1,2019-09-02T21:00:00Z,27.8260,-97.0510,1013.4,11111222 
NDBC,ioos:station:NOAA.NDBC:PTAT2:1,2019-09-02T22:00:00Z,27.8260,-97.0510,1013.2,11111222 
NDBC,ioos:station:NOAA.NDBC:PTAT2:1,2019-09-03T00:00:00Z,27.8260,-97.0510,1012.8,11111222 
NDBC,ioos:station:NOAA.NDBC:PTAT2:1,2019-09-03T02:00:00Z,27.8260,-97.0510,1012.9,11111222 
NDBC,ioos:station:NOAA.NDBC:PTAT2:1,2019-09-03T04:00:00Z,27.8260,-97.0510,1013.4,11111222 
NDBC,ioos:station:NOAA.NDBC:PTAT2:1,2019-09-03T06:00:00Z,27.8260,-97.0510,1012.9,11111222 
NDBC,ioos:station:NOAA.NDBC:PTAT2:1,2019-09-03T08:00:00Z,27.8260,-97.0510,1011.8,11111222 
NDBC,ioos:station:NOAA.NDBC:PTAT2:1,2019-09-03T10:00:00Z,27.8260,-97.0510,1011.9,11111222 
NDBC,ioos:station:NOAA.NDBC:PTAT2:1,2019-09-03T11:00:00Z,27.8260,-97.0510,1012.1,11111222 
NDBC,ioos:station:NOAA.NDBC:PTAT2:1,2019-09-03T12:00:00Z,27.8260,-97.0510,1012.7,11111222 
NDBC,ioos:station:NOAA.NDBC:PTAT2:1,2019-09-03T13:00:00Z,27.8260,-97.0510,1013.0,11111222 
NDBC,ioos:station:NOAA.NDBC:PTAT2:1,2019-09-03T14:00:00Z,27.8260,-97.0510,1013.1,11111222 
NDBC,ioos:station:NOAA.NDBC:PTAT2:1,2019-09-03T16:00:00Z,27.8260,-97.0510,1013.3,11111222 
NDBC,ioos:station:NOAA.NDBC:PTAT2:1,2019-09-03T17:00:00Z,27.8260,-97.0510,1012.5,11111222 
NDBC,ioos:station:NOAA.NDBC:PTAT2:1,2019-09-03T18:00:00Z,27.8260,-97.0510,1012.3,11111222 
NDBC,ioos:station:NOAA.NDBC:PTAT2:1,2019-09-03T19:00:00Z,27.8260,-97.0510,1011.7,11111222 
NDBC,ioos:station:NOAA.NDBC:PTAT2:1,2019-09-03T20:00:00Z,27.8260,-97.0510,1011.3,11111222 
NDBC,ioos:station:NOAA.NDBC:PTAT2:1,2019-09-03T21:00:00Z,27.8260,-97.0510,1011.0,11111222 
NDBC,ioos:station:NOAA.NDBC:PTAT2:1,2019-09-03T22:00:00Z,27.8260,-97.0510,1011.0,11111222 
NDBC,ioos:station:NOAA.NDBC:PTAT2:1,2019-09-03T23:00:00Z,27.8260,-97.0510,1011.0,11111222 
NDBC,ioos:station:NOAA.NDBC:PTAT2:1,2019-09-04T00:00:00Z,27.8260,-97.0510,1011.2,11111222 
NDBC,ioos:station:NOAA.NDBC:PTAT2:1,2019-09-04T01:00:00Z,27.8260,-97.0510,1011.2,11111222 
NDBC,ioos:station:NOAA.NDBC:PTAT2:1,2019-09-04T02:00:00Z,27.8260,-97.0510,1011.3,11111222 
NDBC,ioos:station:NOAA.NDBC:PTAT2:1,2019-09-04T03:00:00Z,27.8260,-97.0510,1011.8,11111222 
NDBC,ioos:station:NOAA.NDBC:PTAT2:1,2019-09-04T04:00:00Z,27.8260,-97.0510,1012.1,11111222 
NDBC,ioos:station:NOAA.NDBC:PTAT2:1,2019-09-04T06:00:00Z,27.8260,-97.0510,1011.5,11111222 
NDBC,ioos:station:NOAA.NDBC:PTAT2:1,2019-09-04T08:00:00Z,27.8260,-97.0510,1011.0,11111222 
NDBC,ioos:station:NOAA.NDBC:PTAT2:1,2019-09-04T09:00:00Z,27.8260,-97.0510,1011.1,11111222 
NDBC,ioos:station:NOAA.NDBC:PTAT2:1,2019-09-04T10:00:00Z,27.8260,-97.0510,1010.9,11111222 
NDBC,ioos:station:NOAA.NDBC:PTAT2:1,2019-09-04T12:00:00Z,27.8260,-97.0510,1011.9,11111222 
NDBC,ioos:station:NOAA.NDBC:PTAT2:1,2019-09-04T14:00:00Z,27.8260,-97.0510,1013.0,11111222 
NDBC,ioos:station:NOAA.NDBC:PTAT2:1,2019-09-04T15:00:00Z,27.8260,-97.0510,1013.2,11111222 
NDBC,ioos:station:NOAA.NDBC:PTAT2:1,2019-09-04T16:00:00Z,27.8260,-97.0510,1013.5,11111222 
NDBC,ioos:station:NOAA.NDBC:PTAT2:1,2019-09-04T17:00:00Z,27.8260,-97.0510,1013.8,11111222 
NDBC,ioos:station:NOAA.NDBC:PTAT2:1,2019-09-04T18:00:00Z,27.8260,-97.0510,1013.4,11111222 
NDBC,ioos:station:NOAA.NDBC:PTAT2:1,2019-09-04T19:00:00Z,27.8260,-97.0510,1013.2,11111222 
NDBC,ioos:station:NOAA.NDBC:PTAT2:1,2019-09-04T20:00:00Z,27.8260,-97.0510,1013.0,11111222 
NDBC,ioos:station:NOAA.NDBC:PTAT2:1,2019-09-04T21:00:00Z,27.8260,-97.0510,1012.8,11111222 
NDBC,ioos:station:NOAA.NDBC:PTAT2:1,2019-09-04T22:00:00Z,27.8260,-97.0510,1012.9,11111222 
NDBC,ioos:station:NOAA.NDBC:PTAT2:1,2019-09-04T23:00:00Z,27.8260,-97.0510,1013.4,11111222 
NDBC,ioos:station:NOAA.NDBC:PTAT2:1,2019-09-05T01:00:00Z,27.8260,-97.0510,1013.3,11111222 
NDBC,ioos:station:NOAA.NDBC:PTAT2:1,2019-09-05T02:00:00Z,27.8260,-97.0510,1014.0,11111222 
NDBC,ioos:station:NOAA.NDBC:PTAT2:1,2019-09-05T03:00:00Z,27.8260,-97.0510,1014.4,11111222 
NDBC,ioos:station:NOAA.NDBC:PTAT2:1,2019-09-05T05:00:00Z,27.8260,-97.0510,1014.9,11111222 
NDBC,ioos:station:NOAA.NDBC:PTAT2:1,2019-09-05T07:00:00Z,27.8260,-97.0510,1014.9,11111222 
NDBC,ioos:station:NOAA.NDBC:PTAT2:1,2019-09-05T08:00:00Z,27.8260,-97.0510,1014.2,11111222 
NDBC,ioos:station:NOAA.NDBC:PTAT2:1,2019-09-05T09:00:00Z,27.8260,-97.0510,1014.8,11111222 
NDBC,ioos:station:NOAA.NDBC:PTAT2:1,2019-09-05T10:00:00Z,27.8260,-97.0510,1014.6,11111222 
NDBC,ioos:station:NOAA.NDBC:PTAT2:1,2019-09-05T11:00:00Z,27.8260,-97.0510,1015.8,11111222 
NDBC,ioos:station:NOAA.NDBC:PTAT2:1,2019-09-05T12:00:00Z,27.8260,-97.0510,1016.6,11111222 
NDBC,ioos:station:NOAA.NDBC:PTAT2:1,2019-09-05T13:00:00Z,27.8260,-97.0510,1017.8,11111222 
NDBC,ioos:station:NOAA.NDBC:PTAT2:1,2019-09-05T14:00:00Z,27.8260,-97.0510,1018.1,11111222 
NDBC,ioos:station:NOAA.NDBC:PTAT2:1,2019-09-05T15:00:00Z,27.8260,-97.0510,1018.5,11111222 
NDBC,ioos:station:NOAA.NDBC:PTAT2:1,2019-09-05T16:00:00Z,27.8260,-97.0510,1018.7,11111222 
NDBC,ioos:station:NOAA.NDBC:PTAT2:1,2019-09-05T17:00:00Z,27.8260,-97.0510,1018.6,11111222 
NDBC,ioos:station:NOAA.NDBC:PTAT2:1,2019-09-05T18:00:00Z,27.8260,-97.0510,1018.5,11111222 
NDBC,ioos:station:NOAA.NDBC:PTAT2:1,2019-09-05T20:00:00Z,27.8260,-97.0510,1017.2,11111222 
NDBC,ioos:station:NOAA.NDBC:PTAT2:1,2019-09-05T21:00:00Z,27.8260,-97.0510,1016.0,11111222 
NDBC,ioos:station:NOAA.NDBC:PTAT2:1,2019-09-05T22:00:00Z,27.8260,-97.0510,1016.7,11111222 
NDBC,ioos:station:NOAA.NDBC:PTAT2:1,2019-09-05T23:00:00Z,27.8260,-97.0510,1016.7,11111222 
NDBC,ioos:station:NOAA.NDBC:PTAT2:1,2019-09-06T00:00:00Z,27.8260,-97.0510,1016.4,11111222 
NDBC,ioos:station:NOAA.NDBC:PTAT2:1,2019-09-06T02:00:00Z,27.8260,-97.0510,1016.0,11111222 
NDBC,ioos:station:NOAA.NDBC:PTAT2:1,2019-09-06T04:00:00Z,27.8260,-97.0510,1016.9,11111222 
NDBC,ioos:station:NOAA.NDBC:PTAT2:1,2019-09-06T05:00:00Z,27.8260,-97.0510,1017.0,11111222 
NDBC,ioos:station:NOAA.NDBC:PTAT2:1,2019-09-06T07:00:00Z,27.8260,-97.0510,1016.8,11111222 
NDBC,ioos:station:NOAA.NDBC:PTAT2:1,2019-09-06T08:00:00Z,27.8260,-97.0510,1016.3,11111222 
NDBC,ioos:station:NOAA.NDBC:PTAT2:1,2019-09-06T10:00:00Z,27.8260,-97.0510,1016.2,11111222 
NDBC,ioos:station:NOAA.NDBC:PTAT2:1,2019-09-06T11:00:00Z,27.8260,-97.0510,1016.2,11111222 
NDBC,ioos:station:NOAA.NDBC:PTAT2:1,2019-09-06T12:00:00Z,27.8260,-97.0510,1016.7,11111222 
NDBC,ioos:station:NOAA.NDBC:PTAT2:1,2019-09-06T13:00:00Z,27.8260,-97.0510,1017.3,11111222 
NDBC,ioos:station:NOAA.NDBC:PTAT2:1,2019-09-06T14:00:00Z,27.8260,-97.0510,1017.8,11111222 
NDBC,ioos:station:NOAA.NDBC:PTAT2:1,2019-09-06T16:00:00Z,27.8260,-97.0510,1018.4,11111222 
NDBC,ioos:station:NOAA.NDBC:PTAT2:1,2019-09-06T17:00:00Z,27.8260,-97.0510,1018.4,11111222 
NDBC,ioos:station:NOAA.NDBC:PTAT2:1,2019-09-06T18:00:00Z,27.8260,-97.0510,1018.2,11111222 
NDBC,ioos:station:NOAA.NDBC:PTAT2:1,2019-09-06T19:00:00Z,27.8260,-97.0510,1017.6,11111222 
NDBC,ioos:station:NOAA.NDBC:PTAT2:1,2019-09-06T20:00:00Z,27.8260,-97.0510,1016.4,11111222 
NDBC,ioos:station:NOAA.NDBC:PTAT2:1,2019-09-06T21:00:00Z,27.8260,-97.0510,1015.7,11111222 
NDBC,ioos:station:NOAA.NDBC:PTAT2:1,2019-09-06T22:00:00Z,27.8260,-97.0510,1015.2,11111222 
NDBC,ioos:station:NOAA.NDBC:PTAT2:1,2019-09-06T23:00:00Z,27.8260,-97.0510,1015.3,11111222 
NDBC,ioos:station:NOAA.NDBC:PTAT2:1,2019-09-07T00:00:00Z,27.8260,-97.0510,1015.4,11111222 
NDBC,ioos:station:NOAA.NDBC:PTAT2:1,2019-09-07T02:00:00Z,27.8260,-97.0510,1015.6,11111222 
NDBC,ioos:station:NOAA.NDBC:PTAT2:1,2019-09-07T04:00:00Z,27.8260,-97.0510,1016.3,11111222 
NDBC,ioos:station:NOAA.NDBC:PTAT2:1,2019-09-07T06:00:00Z,27.8260,-97.0510,1016.1,11111222 
NDBC,ioos:station:NOAA.NDBC:PTAT2:1,2019-09-07T07:00:00Z,27.8260,-97.0510,1015.8,11111222 
NDBC,ioos:station:NOAA.NDBC:PTAT2:1,2019-09-07T08:00:00Z,27.8260,-97.0510,1015.8,11111222 
NDBC,ioos:station:NOAA.NDBC:PTAT2:1,2019-09-07T09:00:00Z,27.8260,-97.0510,1015.5,11111222 
NDBC,ioos:station:NOAA.NDBC:PTAT2:1,2019-09-07T10:00:00Z,27.8260,-97.0510,1015.5,11111222 
NDBC,ioos:station:NOAA.NDBC:PTAT2:1,2019-09-07T11:00:00Z,27.8260,-97.0510,1015.7,11111222 
NDBC,ioos:station:NOAA.NDBC:PTAT2:1,2019-09-07T12:00:00Z,27.8260,-97.0510,1016.2,11111222 
NDBC,ioos:station:NOAA.NDBC:PTAT2:1,2019-09-07T13:00:00Z,27.8260,-97.0510,1016.7,11111222 
NDBC,ioos:station:NOAA.NDBC:PTAT2:1,2019-09-07T14:00:00Z,27.8260,-97.0510,1017.3,11111222 
NDBC,ioos:station:NOAA.NDBC:PTAT2:1,2019-09-07T15:00:00Z,27.8260,-97.0510,1017.5,11111222 
NDBC,ioos:station:NOAA.NDBC:PTAT2:1,2019-09-07T16:00:00Z,27.8260,-97.0510,1017.4,11111222 
NDBC,ioos:station:NOAA.NDBC:PTAT2:1,2019-09-07T17:00:00Z,27.8260,-97.0510,1017.2,11111222 
NDBC,ioos:station:NOAA.NDBC:PTAT2:1,2019-09-07T18:00:00Z,27.8260,-97.0510,1016.8,11111222 
NDBC,ioos:station:NOAA.NDBC:PTAT2:1,2019-09-07T19:00:00Z,27.8260,-97.0510,1016.1,11111222 
NDBC,ioos:station:NOAA.NDBC:PTAT2:1,2019-09-07T20:00:00Z,27.8260,-97.0510,1015.5,11111222 
NDBC,ioos:station:NOAA.NDBC:PTAT2:1,2019-09-07T21:00:00Z,27.8260,-97.0510,1015.1,11111222 
NDBC,ioos:station:NOAA.NDBC:PTAT2:1,2019-09-07T22:00:00Z,27.8260,-97.0510,1014.7,11111222 
NDBC,ioos:station:NOAA.NDBC:PTAT2:1,2019-09-07T23:00:00Z,27.8260,-97.0510,1014.4,11111222 
NDBC,ioos:station:NOAA.NDBC:PTAT2:1,2019-09-08T01:00:00Z,27.8260,-97.0510,1014.2,11111222 
NDBC,ioos:station:NOAA.NDBC:PTAT2:1,2019-09-08T02:00:00Z,27.8260,-97.0510,1014.2,11111222 
NDBC,ioos:station:NOAA.NDBC:PTAT2:1,2019-09-08T03:00:00Z,27.8260,-97.0510,1014.5,11111222 
NDBC,ioos:station:NOAA.NDBC:PTAT2:1,2019-09-08T04:00:00Z,27.8260,-97.0510,1014.9,11111222 
NDBC,ioos:station:NOAA.NDBC:PTAT2:1,2019-09-08T05:00:00Z,27.8260,-97.0510,1014.9,11111222 
NDBC,ioos:station:NOAA.NDBC:PTAT2:1,2019-09-08T06:00:00Z,27.8260,-97.0510,1014.8,11111222 
NDBC,ioos:station:NOAA.NDBC:PTAT2:1,2019-09-08T07:00:00Z,27.8260,-97.0510,1014.9,11111222 
NDBC,ioos:station:NOAA.NDBC:PTAT2:1,2019-09-08T08:00:00Z,27.8260,-97.0510,1014.4,11111222 
NDBC,ioos:station:NOAA.NDBC:PTAT2:1,2019-09-08T09:00:00Z,27.8260,-97.0510,1014.2,11111222 
NDBC,ioos:station:NOAA.NDBC:PTAT2:1,2019-09-08T10:00:00Z,27.8260,-97.0510,1014.2,11111222 
NDBC,ioos:station:NOAA.NDBC:PTAT2:1,2019-09-08T12:00:00Z,27.8260,-97.0510,1014.6,11111222 
NDBC,ioos:station:NOAA.NDBC:PTAT2:1,2019-09-08T13:00:00Z,27.8260,-97.0510,1015.1,11111222 
NDBC,ioos:station:NOAA.NDBC:PTAT2:1,2019-09-08T14:00:00Z,27.8260,-97.0510,1015.1,11111222 
NDBC,ioos:station:NOAA.NDBC:PTAT2:1,2019-09-08T15:00:00Z,27.8260,-97.0510,1015.6,11111222 
NDBC,ioos:station:NOAA.NDBC:PTAT2:1,2019-09-08T16:00:00Z,27.8260,-97.0510,1015.9,11111222 
NDBC,ioos:station:NOAA.NDBC:PTAT2:1,2019-09-08T17:00:00Z,27.8260,-97.0510,1015.7,11111222 
NDBC,ioos:station:NOAA.NDBC:PTAT2:1,2019-09-08T18:00:00Z,27.8260,-97.0510,1015.4,11111222 
NDBC,ioos:station:NOAA.NDBC:PTAT2:1,2019-09-08T19:00:00Z,27.8260,-97.0510,1014.8,11111222 
NDBC,ioos:station:NOAA.NDBC:PTAT2:1,2019-09-08T20:00:00Z,27.8260,-97.0510,1014.3,11111222 
NDBC,ioos:station:NOAA.NDBC:PTAT2:1,2019-09-08T22:00:00Z,27.8260,-97.0510,1013.6,11111222 
NDBC,ioos:station:NOAA.NDBC:PTAT2:1,2019-09-08T23:00:00Z,27.8260,-97.0510,1013.2,11111222 
NDBC,ioos:station:NOAA.NDBC:PTAT2:1,2019-09-09T00:00:00Z,27.8260,-97.0510,1013.2,11111222 
NDBC,ioos:station:NOAA.NDBC:PTAT2:1,2019-09-09T01:00:00Z,27.8260,-97.0510,1013.1,11111222 
NDBC,ioos:station:NOAA.NDBC:PTAT2:1,2019-09-09T02:00:00Z,27.8260,-97.0510,1013.2,11111222 
NDBC,ioos:station:NOAA.NDBC:PTAT2:1,2019-09-09T03:00:00Z,27.8260,-97.0510,1013.7,11111222 
NDBC,ioos:station:NOAA.NDBC:PTAT2:1,2019-09-09T04:00:00Z,27.8260,-97.0510,1014.4,11111222 
NDBC,ioos:station:NOAA.NDBC:PTAT2:1,2019-09-09T05:00:00Z,27.8260,-97.0510,1014.3,11111222 
NDBC,ioos:station:NOAA.NDBC:PTAT2:1,2019-09-09T06:00:00Z,27.8260,-97.0510,1014.2,11111222 
NDBC,ioos:station:NOAA.NDBC:PTAT2:1,2019-09-09T08:00:00Z,27.8260,-97.0510,1014.0,11111222 
NDBC,ioos:station:NOAA.NDBC:PTAT2:1,2019-09-09T09:00:00Z,27.8260,-97.0510,1013.8,11111222 
NDBC,ioos:station:NOAA.NDBC:PTAT2:1,2019-09-09T11:00:00Z,27.8260,-97.0510,1014.1,11111222 
NDBC,ioos:station:NOAA.NDBC:PTAT2:1,2019-09-09T12:00:00Z,27.8260,-97.0510,1014.7,11111222 
NDBC,ioos:station:NOAA.NDBC:PTAT2:1,2019-09-09T14:00:00Z,27.8260,-97.0510,1015.5,11111222 
NDBC,ioos:station:NOAA.NDBC:PTAT2:1,2019-09-09T15:00:00Z,27.8260,-97.0510,1016.0,11111222 
NDBC,ioos:station:NOAA.NDBC:PTAT2:1,2019-09-09T16:00:00Z,27.8260,-97.0510,1016.4,11111222 
NDBC,ioos:station:NOAA.NDBC:PTAT2:1,2019-09-09T17:00:00Z,27.8260,-97.0510,1016.1,11111222 
NDBC,ioos:station:NOAA.NDBC:PTAT2:1,2019-09-09T18:00:00Z,27.8260,-97.0510,1016.1,11111222 
NDBC,ioos:station:NOAA.NDBC:PTAT2:1,2019-09-09T21:00:00Z,27.8260,-97.0510,1014.8,11111222 
NDBC,ioos:station:NOAA.NDBC:PTAT2:1,2019-09-09T23:00:00Z,27.8260,-97.0510,1013.6,11111222 
NDBC,ioos:station:NOAA.NDBC:PTAT2:1,2019-09-10T00:00:00Z,27.8260,-97.0510,1013.5,11111222 
NDBC,ioos:station:NOAA.NDBC:PTAT2:1,2019-09-10T01:00:00Z,27.8260,-97.0510,1013.4,11111222 
NDBC,ioos:station:NOAA.NDBC:PTAT2:1,2019-09-10T02:00:00Z,27.8260,-97.0510,1013.8,11111222 
NDBC,ioos:station:NOAA.NDBC:PTAT2:1,2019-09-10T03:00:00Z,27.8260,-97.0510,1015.2,11111222 
NDBC,ioos:station:NOAA.NDBC:PTAT2:1,2019-09-10T04:00:00Z,27.8260,-97.0510,1015.7,11111222 
NDBC,ioos:station:NOAA.NDBC:PTAT2:1,2019-09-10T05:00:00Z,27.8260,-97.0510,1015.7,11111222 
NDBC,ioos:station:NOAA.NDBC:PTAT2:1,2019-09-10T06:00:00Z,27.8260,-97.0510,1015.3,11111222 
NDBC,ioos:station:NOAA.NDBC:PTAT2:1,2019-09-10T07:00:00Z,27.8260,-97.0510,1015.5,11111222 
NDBC,ioos:station:NOAA.NDBC:PTAT2:1,2019-09-10T08:00:00Z,27.8260,-97.0510,1015.1,11111222 
NDBC,ioos:station:NOAA.NDBC:PTAT2:1,2019-09-10T09:00:00Z,27.8260,-97.0510,1015.0,11111222 
NDBC,ioos:station:NOAA.NDBC:PTAT2:1,2019-09-10T10:00:00Z,27.8260,-97.0510,1015.0,11111222 
NDBC,ioos:station:NOAA.NDBC:PTAT2:1,2019-09-10T12:00:00Z,27.8260,-97.0510,1015.7,11111222 
NDBC,ioos:station:NOAA.NDBC:PTAT2:1,2019-09-10T13:00:00Z,27.8260,-97.0510,1016.3,11111222 
NDBC,ioos:station:NOAA.NDBC:PTAT2:1,2019-09-10T14:00:00Z,27.8260,-97.0510,1016.5,11111222 
NDBC,ioos:station:NOAA.NDBC:PTAT2:1,2019-09-10T16:00:00Z,27.8260,-97.0510,1017.7,11111222 
NDBC,ioos:station:NOAA.NDBC:PTAT2:1,2019-09-10T17:00:00Z,27.8260,-97.0510,1017.8,11111222 
NDBC,ioos:station:NOAA.NDBC:PTAT2:1,2019-09-10T18:00:00Z,27.8260,-97.0510,1017.3,11111222 
NDBC,ioos:station:NOAA.NDBC:PTAT2:1,2019-09-10T19:00:00Z,27.8260,-97.0510,1016.6,11111222 
NDBC,ioos:station:NOAA.NDBC:PTAT2:1,2019-09-10T20:00:00Z,27.8260,-97.0510,1016.4,11111222 
NDBC,ioos:station:NOAA.NDBC:PTAT2:1,2019-09-10T21:00:00Z,27.8260,-97.0510,1015.9,11111222 
NDBC,ioos:station:NOAA.NDBC:PTAT2:1,2019-09-10T22:00:00Z,27.8260,-97.0510,1015.8,11111222 
NDBC,ioos:station:NOAA.NDBC:PTAT2:1,2019-09-10T23:00:00Z,27.8260,-97.0510,1015.7,11111222 
NDBC,ioos:station:NOAA.NDBC:PTAT2:1,2019-09-11T01:00:00Z,27.8260,-97.0510,1015.7,11111222 
NDBC,ioos:station:NOAA.NDBC:PTAT2:1,2019-09-11T02:00:00Z,27.8260,-97.0510,1016.4,11111222 
NDBC,ioos:station:NOAA.NDBC:PTAT2:1,2019-09-11T03:00:00Z,27.8260,-97.0510,1017.2,11111222 
NDBC,ioos:station:NOAA.NDBC:PTAT2:1,2019-09-11T04:00:00Z,27.8260,-97.0510,1017.6,11111222 
NDBC,ioos:station:NOAA.NDBC:PTAT2:1,2019-09-11T05:00:00Z,27.8260,-97.0510,1017.7,11111222 
NDBC,ioos:station:NOAA.NDBC:PTAT2:1,2019-09-11T07:00:00Z,27.8260,-97.0510,1017.0,11111222 
NDBC,ioos:station:NOAA.NDBC:PTAT2:1,2019-09-11T09:00:00Z,27.8260,-97.0510,1016.5,11111222 
NDBC,ioos:station:NOAA.NDBC:PTAT2:1,2019-09-11T10:00:00Z,27.8260,-97.0510,1016.5,11111222 
NDBC,ioos:station:NOAA.NDBC:PTAT2:1,2019-09-11T12:00:00Z,27.8260,-97.0510,1017.0,11111222 
NDBC,ioos:station:NOAA.NDBC:PTAT2:1,2019-09-11T13:00:00Z,27.8260,-97.0510,1017.7,11111222 
NDBC,ioos:station:NOAA.NDBC:PTAT2:1,2019-09-11T14:00:00Z,27.8260,-97.0510,1018.1,11111222 
NDBC,ioos:station:NOAA.NDBC:PTAT2:1,2019-09-11T16:00:00Z,27.8260,-97.0510,1018.0,11111222 
NDBC,ioos:station:NOAA.NDBC:PTAT2:1,2019-09-11T17:00:00Z,27.8260,-97.0510,1018.5,11111222 
NDBC,ioos:station:NOAA.NDBC:PTAT2:1,2019-09-11T19:00:00Z,27.8260,-97.0510,1017.9,11111222 
NDBC,ioos:station:NOAA.NDBC:PTAT2:1,2019-09-11T20:00:00Z,27.8260,-97.0510,1017.0,11111222 
NDBC,ioos:station:NOAA.NDBC:PTAT2:1,2019-09-11T21:00:00Z,27.8260,-97.0510,1016.7,11111222 
NDBC,ioos:station:NOAA.NDBC:PTAT2:1,2019-09-11T22:00:00Z,27.8260,-97.0510,1016.3,11111222 
NDBC,ioos:station:NOAA.NDBC:PTAT2:1,2019-09-11T23:00:00Z,27.8260,-97.0510,1016.1,11111222 
NDBC,ioos:station:NOAA.NDBC:PTAT2:1,2019-09-12T00:00:00Z,27.8260,-97.0510,1015.9,11111222 
NDBC,ioos:station:NOAA.NDBC:PTAT2:1,2019-09-12T01:00:00Z,27.8260,-97.0510,1016.1,11111222 
NDBC,ioos:station:NOAA.NDBC:PTAT2:1,2019-09-12T02:00:00Z,27.8260,-97.0510,1016.1,11111222 
NDBC,ioos:station:NOAA.NDBC:PTAT2:1,2019-09-12T03:00:00Z,27.8260,-97.0510,1016.8,11111222 
NDBC,ioos:station:NOAA.NDBC:PTAT2:1,2019-09-12T04:00:00Z,27.8260,-97.0510,1016.9,11111222 
NDBC,ioos:station:NOAA.NDBC:PTAT2:1,2019-09-12T06:00:00Z,27.8260,-97.0510,1016.5,11111222 
NDBC,ioos:station:NOAA.NDBC:PTAT2:1,2019-09-12T08:00:00Z,27.8260,-97.0510,1015.3,11111222 
NDBC,ioos:station:NOAA.NDBC:PTAT2:1,2019-09-12T10:00:00Z,27.8260,-97.0510,1015.0,11111222 
NDBC,ioos:station:NOAA.NDBC:PTAT2:1,2019-09-12T12:00:00Z,27.8260,-97.0510,1015.7,11111222 
NDBC,ioos:station:NOAA.NDBC:PTAT2:1,2019-09-12T13:00:00Z,27.8260,-97.0510,1015.8,11111222 
NDBC,ioos:station:NOAA.NDBC:PTAT2:1,2019-09-12T14:00:00Z,27.8260,-97.0510,1016.6,11111222 
NDBC,ioos:station:NOAA.NDBC:PTAT2:1,2019-09-12T16:00:00Z,27.8260,-97.0510,1017.6,11111222 
NDBC,ioos:station:NOAA.NDBC:PTAT2:1,2019-09-13T20:00:00Z,27.8260,-97.0510,1017.9,11111222 
NDBC,ioos:station:NOAA.NDBC:PTAT2:1,2019-09-13T21:00:00Z,27.8260,-97.0510,1017.1,11111222 
NDBC,ioos:station:NOAA.NDBC:PTAT2:1,2019-09-13T22:00:00Z,27.8260,-97.0510,1016.6,11111222 
NDBC,ioos:station:NOAA.NDBC:PTAT2:1,2019-09-13T23:00:00Z,27.8260,-97.0510,1016.4,11111222 
NDBC,ioos:station:NOAA.NDBC:PTAT2:1,2019-09-14T00:00:00Z,27.8260,-97.0510,1016.7,11111222 
NDBC,ioos:station:NOAA.NDBC:PTAT2:1,2019-09-14T01:00:00Z,27.8260,-97.0510,1016.6,11111222 
NDBC,ioos:station:NOAA.NDBC:PTAT2:1,2019-09-14T02:00:00Z,27.8260,-97.0510,1016.7,11111222 
NDBC,ioos:station:NOAA.NDBC:PTAT2:1,2019-09-14T03:00:00Z,27.8260,-97.0510,1017.3,11111222 
NDBC,ioos:station:NOAA.NDBC:PTAT2:1,2019-09-14T04:00:00Z,27.8260,-97.0510,1017.8,11111222 
NDBC,ioos:station:NOAA.NDBC:PTAT2:1,2019-09-14T05:00:00Z,27.8260,-97.0510,1017.6,11111222 
NDBC,ioos:station:NOAA.NDBC:PTAT2:1,2019-09-14T06:00:00Z,27.8260,-97.0510,1017.5,11111222 
NDBC,ioos:station:NOAA.NDBC:PTAT2:1,2019-09-14T07:00:00Z,27.8260,-97.0510,1017.4,11111222 
NDBC,ioos:station:NOAA.NDBC:PTAT2:1,2019-09-14T08:00:00Z,27.8260,-97.0510,1017.2,11111222 
NDBC,ioos:station:NOAA.NDBC:PTAT2:1,2019-09-14T09:00:00Z,27.8260,-97.0510,1016.8,11111222 
NDBC,ioos:station:NOAA.NDBC:PTAT2:1,2019-09-14T10:00:00Z,27.8260,-97.0510,1016.7,11111222 
NDBC,ioos:station:NOAA.NDBC:PTAT2:1,2019-09-14T11:00:00Z,27.8260,-97.0510,1017.2,11111222 
NDBC,ioos:station:NOAA.NDBC:PTAT2:1,2019-09-14T12:00:00Z,27.8260,-97.0510,1017.4,11111222 
NDBC,ioos:station:NOAA.NDBC:PTAT2:1,2019-09-14T13:00:00Z,27.8260,-97.0510,1017.6,11111222 
NDBC,ioos:station:NOAA.NDBC:PTAT2:1,2019-09-14T14:00:00Z,27.8260,-97.0510,1017.9,11111222 
NDBC,ioos:station:NOAA.NDBC:PTAT2:1,2019-09-14T15:00:00Z,27.8260,-97.0510,1018.1,11111222 
NDBC,ioos:station:NOAA.NDBC:PTAT2:1,2019-09-14T16:00:00Z,27.8260,-97.0510,1018.5,11111222 
NDBC,ioos:station:NOAA.NDBC:PTAT2:1,2019-09-14T17:00:00Z,27.8260,-97.0510,1018.4,11111222 
NDBC,ioos:station:NOAA.NDBC:PTAT2:1,2019-09-14T18:00:00Z,27.8260,-97.0510,1017.8,11111222 
NDBC,ioos:station:NOAA.NDBC:PTAT2:1,2019-09-14T19:00:00Z,27.8260,-97.0510,1017.3,11111222 
NDBC,ioos:station:NOAA.NDBC:PTAT2:1,2019-09-14T20:00:00Z,27.8260,-97.0510,1016.8,11111222 
NDBC,ioos:station:NOAA.NDBC:PTAT2:1,2019-09-14T21:00:00Z,27.8260,-97.0510,1016.2,11111222 
NDBC,ioos:station:NOAA.NDBC:PTAT2:1,2019-09-14T22:00:00Z,27.8260,-97.0510,1015.7,11111222 
NDBC,ioos:station:NOAA.NDBC:PTAT2:1,2019-09-14T23:00:00Z,27.8260,-97.0510,1015.6,11111222 
NDBC,ioos:station:NOAA.NDBC:PTAT2:1,2019-09-15T00:00:00Z,27.8260,-97.0510,1015.6,11111222 
NDBC,ioos:station:NOAA.NDBC:PTAT2:1,2019-09-15T01:00:00Z,27.8260,-97.0510,1015.6,11111222 
NDBC,ioos:station:NOAA.NDBC:PTAT2:1,2019-09-15T02:00:00Z,27.8260,-97.0510,1016.1,11111222 
NDBC,ioos:station:NOAA.NDBC:PTAT2:1,2019-09-15T03:00:00Z,27.8260,-97.0510,1016.7,11111222 
NDBC,ioos:station:NOAA.NDBC:PTAT2:1,2019-09-15T04:00:00Z,27.8260,-97.0510,1016.7,11111222 